Regional Weather Roundup
Issued by NWS Sterling, VA

Home | Current Version | Previous Version | Graphics & Text | Print | Product List | Glossary On
Versions: 1 2 3 4 5 6 7 8 9 10 11 12 13 14 15 16 17 18 19 20 21 22 23 24 25 26 27 28 29 30 31 32 33 34 35 36 37 38 39 40 41 42 43 44 45 46 47 48 49 50
000
ASUS41 KLWX 022310
RWRLWX

REGIONAL WEATHER ROUNDUP
NATIONAL WEATHER SERVICE BALTIMORE MD/WASHINGTON DC
700 PM EDT SUN AUG 02 2015

Note: "FAIR" indicates few or no clouds below 12,000 feet
with no significant weather and/or obstructions to visibility.
 TC=TEMPERATURE CELSIUS

 * =Non NWS site. Station does not report precipitation (e.g. rain,
    snow, etc.), thunder, or fog.

DCZ001-MDZ009-015-VAZ040>042-051-053>054-030000-
WASHINGTON METRO

CITY           SKY/WX    TMP DP  RH WIND       PRES   REMARKS
WASHINGTON NAT PTSUNNY   86  59  39 S14       29.91F
DULLES         MOSUNNY   82  59  45 SW12      29.91F
LEESBURG*      SUNNY     86  64  48 SW9       29.92F
MANASSAS*      SUNNY     82  61  47 SW7       29.92F
GAITHERSBURG*  SUNNY     84  57  39 S7        29.94F

$$

MDZ006>007-011-014-030000-
BALTIMORE METRO

CITY           SKY/WX    TMP DP  RH WIND       PRES   REMARKS
BWI AIRPORT    MOSUNNY   84  61  45 S5        29.89F
MD SCIENCE CTR   N/A     86  54  33 MISG      29.89F
MARTIN STATE   MOSUNNY   84  64  51 S9        29.90F
ANNAPOLIS      PTSUNNY   83  59  44 SW8       29.89F
FORT MEADE*    MOSUNNY   79  63  57 SW7       29.92S

$$

MDZ012-015-019>023-030000-
MARYLAND EASTERN SHORE

CITY           SKY/WX    TMP DP  RH WIND       PRES   REMARKS
OCEAN CITY     CLOUDY    80  69  69 S3        29.92F
SALISBURY      CLOUDY    80  70  71 SE5       29.91F
BAY BRIDGE AP*   N/A     84  55  37 S5        29.90F
CAMBRIDGE*     PTSUNNY   82  59  44 CALM      29.91F
EASTON*        PTSUNNY   82  61  47 SW5       29.94F

$$

MDZ017>025-030000-
SOUTHERN MARYLAND

CITY           SKY/WX    TMP DP  RH WIND       PRES   REMARKS
PATUXENT RIVER MOSUNNY   83  57  41 W10       29.91F
ST INIGOES     MOSUNNY   83  62  49 W5        29.91F
LEONARDTOWN*   MOSUNNY   82  57  42 SW3       29.94S

$$

MDZ003>005-030000-
NORTH CENTRAL MARYLAND

CITY           SKY/WX    TMP DP  RH WIND       PRES   REMARKS
FREDERICK*     NOT AVBL
HAGERSTOWN APT MOSUNNY   85  56  37 S9        29.90S
WESTMINSTER*   SUNNY     84  57  39 SW10      29.92F

$$

MDZ501>502-030000-
WESTERN MARYLAND

CITY           SKY/WX    TMP DP  RH WIND       PRES   REMARKS
OAKLAND*       SUNNY     72  68  88 SW6       30.03S
CUMBERLAND*    SUNNY     86  54  32 SW7       29.95S

$$

VAZ025>031-030000-
SHENANDOAH VALLEY

CITY           SKY/WX    TMP DP  RH WIND       PRES   REMARKS
WINCHESTER*    SUNNY     84  59  42 S10       29.92S
FRONT ROYAL*   FAIR      81  63  54 S7        29.91F
LURAY*         FAIR      84  59  42 SW12      29.94F
NEW MARKET*    FAIR      81  60  48 S6        29.92F
STAUNTON*      MOSUNNY   83  56  39 SW10      29.98F
WAYNESBORO*    FAIR      78  59  51 SW5       29.99F

$$

WVZ021-048>050-054>055-030000-
EASTERN WEST VIRGINIA PANHANDLE

CITY           SKY/WX    TMP DP  RH WIND       PRES   REMARKS
MARTINSBURG    SUNNY     84  58  40 S9        29.91F
PETERSBURG*    SUNNY    N/A N/A N/A SW3       29.93F

$$

VAZ036>039-050-030000-
CENTRAL FOOTHILLS

CITY           SKY/WX    TMP DP  RH WIND       PRES   REMARKS
CHARLOTTESVILL SUNNY     81  62  52 VRB5      29.95F
CULPEPER*      SUNNY     80  61  52 SW6       29.94F
ORANGE*        SUNNY     82  61  47 CALM      29.95F
GORDONSVILLE*  FAIR      81  63  54 CALM      29.93F
WARRENTON*     FAIR      82  65  57 SW3       29.92F

$$

VAZ055>057-030000-
NORTH AND CENTRAL PIEDMONT

CITY           SKY/WX    TMP DP  RH WIND       PRES   REMARKS
FREDERICKSBRG* PTSUNNY   85  63  47 W6        29.91F
STAFFORD*      MOSUNNY   81  60  48 W5        29.96F

$$

NCZ024-NYZ072-PAZ021-071-VAZ022-071-030000-
OTHER REGIONAL OBSERVATIONS

CITY           SKY/WX    TMP DP  RH WIND       PRES   REMARKS
NEW YORK CITY  SUNNY     83  58  42 VRB3      29.90F
PHILADELPHIA   PTSUNNY   88  52  29 SW10      29.88F
PITTSBURGH     MOSUNNY   84  60  44 SW13      29.90F
ROANOKE        MOSUNNY   83  53  35 SE6       29.99F
RICHMOND       PTSUNNY   85  60  42 NE5       29.92F
RALEIGH        MOSUNNY   87  60  40 NE7       29.93F

$$

ANZ530>537-030000-
MARINE OBSERVATIONS

STATION/POSITION TIME  TEMP    WIND        PRES
                       AIR SEA DIR/SP/G
                 (UTC) (F)     (DEG/KT/KT) (MB)
THOMAS PT LIGHT  2300   83 81  220/ 10/ 12 1012.9F
BALT KEY BRIDGE  2200   85     180/  8/ 10 1012.2F
COVE POINT       2200   82     180/  5/  6 1013.9F
LEWISETTA        2200   86 85  350/  1/  2 1012.9F
SOLOMONS ISLAND  2200      85                N/A
PINEY POINT      2200          310/  7/  8   N/A

$$



USA.gov is the U.S. government's official web portal to all federal, state and local government web resources and services.